EW2563 Weather Reports


Display with metric or nautical units.
time (UTC)temp
F
wind
direction
speed
MPH
gust
MPH
rain 1hr
in
rain 24hr
in
rain mn
in
humidity
%
barometer
mb
20260509223059 59 170 1.0 4.0 0.00 0.37 0.33 84 1006.9
20260509221554 59 108 1.0 4.0 0.00 0.37 0.33 83 1006.8
20260509220058 60 136 2.0 8.0 0.00 0.37 0.33 82 1006.9
20260509214557 59 160 2.0 6.0 0.00 0.37 0.33 84 1006.9
20260509213102 58 116 1.0 7.0 0.00 0.37 0.33 86 1007.3
20260509211504 58 186 2.0 6.0 0.00 0.37 0.33 86 1007.4
20260509210016 60 94 1.0 7.0 0.00 0.37 0.33 89 1007.3
20260509204511 57 103 0.0 3.0 0.00 0.37 0.33 92 1007.5
20260509203018 57 106 1.0 4.0 0.01 0.37 0.33 92 1007.5
20260509201526 56 152 1.0 5.0 0.02 0.37 0.33 93 1007.6
20260509200038 55 156 0.0 6.0 0.02 0.37 0.33 94 1008.0
20260509194539 54 147 2.0 5.0 0.02 0.37 0.33 94 1008.1
20260509193059 54 171 2.0 6.0 0.02 0.36 0.32 93 1008.3
20260509191545 54 125 2.0 7.0 0.02 0.35 0.31 94 1008.2
20260509184609 54 176 2.0 6.0 0.02 0.36 0.30 94 1008.4
20260509183002 53 160 1.0 5.0 0.04 0.36 0.30 94 1008.5
20260509181515 53 255 1.0 5.0 0.04 0.35 0.28 94 1008.6
20260509180019 53 193 0.0 3.0 0.06 0.35 0.28 94 1008.6
20260509174522 53 138 0.0 4.0 0.07 0.35 0.28 94 1008.6
20260509173025 53 155 2.0 5.0 0.07 0.33 0.26 95 1008.6
20260509171539 52 108 1.0 5.0 0.07 0.32 0.25 95 1008.6
20260509170041 52 176 1.0 5.0 0.05 0.30 0.23 95 1008.6
20260509164545 52 167 0.0 3.0 0.04 0.28 0.21 95 1008.6
20260509163048 52 141 1.0 6.0 0.03 0.27 0.20 95 1008.7
20260509161552 52 168 0.0 3.0 0.01 0.25 0.18 95 1008.8
20260509160052 52 185 1.0 4.0 0.02 0.25 0.18 95 1008.8
20260509154552 52 134 0.0 3.0 0.03 0.24 0.17 95 1008.9
20260509153056 51 138 1.0 4.0 0.04 0.24 0.17 95 1009.0
20260509151510 51 174 1.0 3.0 0.06 0.24 0.17 95 1009.2
20260509150023 51 113 0.0 2.0 0.07 0.23 0.16 95 1009.3
20260509144630 50 98 0.0 2.0 0.06 0.21 0.14 95 1009.3
20260509143050 50 116 0.0 0.0 0.05 0.20 0.13 96 1009.3
20260509141547 50 107 0.0 1.0 0.03 0.18 0.11 96 1009.4
20260509140048 50 105 0.0 0.0 0.02 0.16 0.09 96 1009.5
20260509134552 50 103 0.0 0.0 0.01 0.15 0.08 96 1009.6
20260509133055 50 125 0.0 0.0 0.01 0.15 0.08 96 1009.6
20260509131557 50 125 0.0 0.0 0.01 0.15 0.08 96 1009.6
20260509130005 50 227 0.0 0.0 0.00 0.14 0.07 96 1009.7
20260509124512 50 244 0.0 0.0 0.01 0.14 0.07 96 1009.7
20260509123013 49 248 0.0 0.0 0.01 0.14 0.07 96 1009.7
20260509121521 49 248 0.0 0.0 0.01 0.14 0.07 96 1009.7
20260509120021 49 248 0.0 0.0 0.01 0.14 0.07 96 1009.6
20260509114529 49 1 0.0 0.0 0.00 0.13 0.06 96 1009.6
20260509113042 48 1 0.0 0.0 0.00 0.13 0.06 96 1009.7
20260509111543 48 1 0.0 0.0 0.00 0.13 0.06 96 1009.6
20260509110047 48 49 0.0 4.0 0.00 0.13 0.06 96 1009.7
20260509104549 48 272 1.0 3.0 0.00 0.13 0.06 96 1009.8
20260509103052 48 274 0.0 0.0 0.00 0.13 0.06 96 1009.7
20260509101558 48 274 0.0 0.0 0.00 0.13 0.06 96 1009.5
20260509100106 48 274 0.0 0.0 0.00 0.13 0.06 95 1009.6
20260509094519 48 274 0.0 0.0 0.01 0.13 0.06 95 1009.8
20260509093031 48 274 0.0 1.0 0.01 0.13 0.06 95 1009.8
20260509091543 48 274 0.0 0.0 0.01 0.13 0.06 95 1010.0
20260509090047 48 274 0.0 0.0 0.01 0.13 0.06 95 1009.9
20260509084553 48 289 0.0 1.0 0.00 0.12 0.05 95 1010.1
20260509083051 48 21 0.0 1.0 0.00 0.12 0.05 95 1010.0
20260509081555 48 21 0.0 1.0 0.00 0.12 0.05 95 1010.0
20260509080101 48 13 0.0 2.0 0.02 0.12 0.05 95 1010.0
20260509074509 48 66 1.0 3.0 0.03 0.12 0.05 95 1010.1
20260509073023 48 25 0.0 0.0 0.03 0.12 0.05 95 1010.3
20260509071526 48 25 0.0 1.0 0.04 0.12 0.05 95 1010.6
20260509070030 49 25 0.0 1.0 0.03 0.10 0.03 95 1010.6
20260509064531 49 25 0.0 2.0 0.02 0.09 0.02 95 1010.9
20260509063041 49 113 0.0 1.0 0.02 0.09 0.02 95 1010.7
20260509061548 49 30 0.0 0.0 0.01 0.08 0.01 95 1011.0
20260509060057 49 30 0.0 0.0 0.00 0.07 0.00 95 1011.1
20260509054606 49 30 0.0 1.0 0.00 0.07 0.00 95 1011.2
20260509053106 49 30 0.0 2.0 0.00 0.07 0.00 95 1011.3
20260509051557 49 180 0.0 2.0 0.00 0.07 0.00 95 1011.4
20260509050059 49 116 0.0 0.0 0.00 0.07 0.00 94 1011.6
20260509044556 49 257 0.0 1.0 0.00 0.07 0.00 94 1011.2
20260509043110 49 194 0.0 0.0 0.00 0.07 0.00 94 1011.1
20260509041512 49 194 0.0 1.0 0.00 0.07 0.00 94 1010.8
20260509040016 49 41 0.0 1.0 0.00 0.07 0.00 94 1011.0
20260509034517 49 39 0.0 2.0 0.00 0.08 0.07 94 1011.2
20260509033015 49 269 0.0 1.0 0.00 0.08 0.07 94 1011.4
20260509031520 49 269 0.0 1.0 0.01 0.08 0.07 94 1011.5
20260509030025 49 269 0.0 2.0 0.01 0.08 0.07 94 1011.5
20260509024529 49 334 0.0 1.0 0.01 0.09 0.07 93 1011.4
20260509023052 49 45 0.0 2.0 0.01 0.09 0.07 93 1011.3
20260509021540 50 113 0.0 1.0 0.00 0.08 0.06 93 1011.4
20260509020048 50 250 0.0 1.0 0.00 0.08 0.06 92 1011.4
20260509014551 50 269 0.0 1.0 0.00 0.08 0.06 92 1011.1
20260509013104 50 269 0.0 1.0 0.00 0.08 0.06 92 1011.0
20260509011551 50 269 0.0 1.0 0.00 0.08 0.06 91 1010.8
20260509010053 50 269 0.0 0.0 0.00 0.08 0.06 90 1010.7
20260509004555 51 269 0.0 0.0 0.00 0.08 0.06 89 1010.6
20260509003102 51 269 0.0 1.0 0.00 0.08 0.06 89 1010.4
20260509001557 52 269 0.0 0.0 0.00 0.08 0.06 89 1010.4
20260509000058 53 269 0.0 1.0 0.00 0.08 0.06 88 1010.3
20260508234601 53 270 0.0 1.0 0.00 0.08 0.06 88 1010.3
20260508233059 53 34 0.0 0.0 0.00 0.08 0.06 88 1010.1
20260508231606 53 150 0.0 2.0 0.02 0.08 0.06 87 1009.9
20260508230003 52 113 0.0 2.0 0.03 0.08 0.06 88 1009.9
20260508224540 52 64 0.0 1.0 0.03 0.08 0.06 86 1010.2